Time,TemperatureF,DewpointF,PressureIn,WindDirection,WindDirectionDegrees,WindSpeedMPH,WindSpeedGustMPH,Humidity,HourlyPrecipIn,Conditions,Clouds,dailyrainin,SoftwareType,DateUTC
2013-05-24 00:00:00,36.0,33.0,-100.00,North,-999,-999.0,-999.0,89,-99.99,,,-99.99,,2013-05-24 07:00:00,
2013-05-24 00:52:00,36.0,33.0,-100.00,North,-999,-999.0,-999.0,89,-99.99,,,-99.99,,2013-05-24 07:52:00,
2013-05-24 01:00:00,36.0,33.0,-100.00,North,-999,-999.0,-999.0,89,-99.99,,,-99.99,,2013-05-24 08:00:00,
2013-05-24 01:52:00,36.0,33.0,-100.00,North,-999,-999.0,-999.0,89,-99.99,,,-99.99,,2013-05-24 08:52:00,
2013-05-24 02:00:00,36.0,33.0,-100.00,North,-999,-999.0,-999.0,89,-99.99,,,-99.99,,2013-05-24 09:00:00,
2013-05-24 02:53:00,36.0,33.0,-100.00,North,-999,-999.0,-999.0,89,-99.99,,,-99.99,,2013-05-24 09:53:00,
2013-05-24 03:00:00,35.0,33.0,-100.00,North,-999,-999.0,-999.0,92,-99.99,,,-99.99,,2013-05-24 10:00:00,
2013-05-24 03:52:00,35.0,33.0,-100.00,North,-999,-999.0,-999.0,92,-99.99,,,-99.99,,2013-05-24 10:52:00,
2013-05-24 04:00:00,35.0,32.0,-100.00,North,-999,-999.0,-999.0,90,-99.99,,,-99.99,,2013-05-24 11:00:00,
2013-05-24 04:52:00,35.0,32.0,-100.00,North,-999,-999.0,-999.0,90,-99.99,,,-99.99,,2013-05-24 11:52:00,
2013-05-24 05:00:00,34.0,32.0,-100.00,North,-999,-999.0,-999.0,91,-99.99,,,-99.99,,2013-05-24 12:00:00,
2013-05-24 05:52:00,34.0,32.0,-100.00,North,-999,-999.0,-999.0,91,-99.99,,,-99.99,,2013-05-24 12:52:00,
2013-05-24 06:00:00,33.0,31.0,-100.00,North,-999,-999.0,-999.0,94,-99.99,,,-99.99,,2013-05-24 13:00:00,
2013-05-24 06:52:00,33.0,31.0,-100.00,North,-999,-999.0,-999.0,94,-99.99,,,-99.99,,2013-05-24 13:52:00,
2013-05-24 07:00:00,33.0,31.0,-100.00,North,-999,-999.0,-999.0,94,-99.99,,,-99.99,,2013-05-24 14:00:00,
2013-05-24 07:52:00,33.0,31.0,-100.00,North,-999,-999.0,-999.0,94,-99.99,,,-99.99,,2013-05-24 14:52:00,
2013-05-24 08:00:00,33.0,31.0,-100.00,North,-999,-999.0,-999.0,94,-99.99,,,-99.99,,2013-05-24 15:00:00,
2013-05-24 08:52:00,33.0,31.0,-100.00,North,-999,-999.0,-999.0,94,-99.99,,,-99.99,,2013-05-24 15:52:00,
2013-05-24 09:00:00,35.0,33.0,-100.00,North,-999,-999.0,-999.0,92,-99.99,,,-99.99,,2013-05-24 16:00:00,
2013-05-24 09:52:00,35.0,33.0,-100.00,North,-999,-999.0,-999.0,92,-99.99,,,-99.99,,2013-05-24 16:52:00,
2013-05-24 10:00:00,37.0,34.0,-100.00,North,-999,-999.0,-999.0,88,-99.99,,,-99.99,,2013-05-24 17:00:00,
2013-05-24 10:52:00,37.0,34.0,-100.00,North,-999,-999.0,-999.0,88,-99.99,,,-99.99,,2013-05-24 17:52:00,
2013-05-24 11:00:00,39.0,35.0,-100.00,North,-999,-999.0,-999.0,84,-99.99,,,-99.99,,2013-05-24 18:00:00,
2013-05-24 11:52:00,39.0,35.0,-100.00,North,-999,-999.0,-999.0,84,-99.99,,,-99.99,,2013-05-24 18:52:00,
2013-05-24 12:00:00,40.0,35.0,-100.00,North,-999,-999.0,-999.0,83,-99.99,,,-99.99,,2013-05-24 19:00:00,
2013-05-24 12:52:00,40.0,35.0,-100.00,North,-999,-999.0,-999.0,83,-99.99,,,-99.99,,2013-05-24 19:52:00,
2013-05-24 13:00:00,41.0,36.0,-100.00,North,-999,-999.0,-999.0,81,-99.99,,,-99.99,,2013-05-24 20:00:00,
2013-05-24 13:52:00,41.0,36.0,-100.00,North,-999,-999.0,-999.0,81,-99.99,,,-99.99,,2013-05-24 20:52:00,
2013-05-24 14:00:00,41.0,33.0,-100.00,North,-999,-999.0,-999.0,74,-99.99,,,-99.99,,2013-05-24 21:00:00,
2013-05-24 14:53:00,41.0,33.0,-100.00,North,-999,-999.0,-999.0,74,-99.99,,,-99.99,,2013-05-24 21:53:00,
2013-05-24 15:00:00,41.0,34.0,-100.00,North,-999,-999.0,-999.0,76,-99.99,,,-99.99,,2013-05-24 22:00:00,
2013-05-24 15:52:00,41.0,34.0,-100.00,North,-999,-999.0,-999.0,76,-99.99,,,-99.99,,2013-05-24 22:52:00,
2013-05-24 16:00:00,43.0,35.0,-100.00,North,-999,-999.0,-999.0,72,-99.99,,,-99.99,,2013-05-24 23:00:00,
2013-05-24 16:52:00,43.0,35.0,-100.00,North,-999,-999.0,-999.0,72,-99.99,,,-99.99,,2013-05-24 23:52:00,
2013-05-24 17:00:00,42.0,34.0,-100.00,North,-999,-999.0,-999.0,73,-99.99,,,-99.99,,2013-05-25 00:00:00,
2013-05-24 17:52:00,42.0,34.0,-100.00,North,-999,-999.0,-999.0,73,-99.99,,,-99.99,,2013-05-25 00:52:00,
2013-05-24 18:00:00,44.0,35.0,-100.00,North,-999,-999.0,-999.0,70,-99.99,,,-99.99,,2013-05-25 01:00:00,
2013-05-24 18:52:00,44.0,35.0,-100.00,North,-999,-999.0,-999.0,70,-99.99,,,-99.99,,2013-05-25 01:52:00,
2013-05-24 19:00:00,40.0,36.0,-100.00,North,-999,-999.0,-999.0,85,-99.99,,,-99.99,,2013-05-25 02:00:00,
2013-05-24 19:52:00,40.0,36.0,-100.00,North,-999,-999.0,-999.0,85,-99.99,,,-99.99,,2013-05-25 02:52:00,
2013-05-24 20:00:00,40.0,36.0,-100.00,North,-999,-999.0,-999.0,86,-99.99,,,-99.99,,2013-05-25 03:00:00,
2013-05-24 20:53:00,40.0,36.0,-100.00,North,-999,-999.0,-999.0,86,-99.99,,,-99.99,,2013-05-25 03:53:00,
2013-05-24 21:00:00,39.0,35.0,-100.00,North,-999,-999.0,-999.0,86,-99.99,,,-99.99,,2013-05-25 04:00:00,
2013-05-24 21:53:00,39.0,35.0,-100.00,North,-999,-999.0,-999.0,86,-99.99,,,-99.99,,2013-05-25 04:53:00,
2013-05-24 23:00:00,37.0,35.0,-100.00,North,-999,-999.0,-999.0,92,-99.99,,,-99.99,,2013-05-25 06:00:00,
2013-05-24 23:52:00,37.0,35.0,-100.00,North,-999,-999.0,-999.0,92,-99.99,,,-99.99,,2013-05-25 06:52:00,